Phnom Penh, Cambodia

11:01 AM +07 on February 26, 2018 (GMT +0700)
Pochentong International

Weather History for VDPP - June, 2013

Change the Weather History Date:

Tuesday, June 18, 2013

  Actual Average Record
Temperature  
Mean Temperature 84 °F -  
Max Temperature 91 °F 88 °F 96 °F (2005)
Min Temperature 78 °F 77 °F 75 °F (2006)
Cooling Degree Days 20    
Growing Degree Days 34 (Base 50)    
Moisture  
Dew Point 75 °F    
Average Humidity 71    
Maximum Humidity 89    
Minimum Humidity 55    
Precipitation  
Precipitation 0.00 in - - ()
Sea Level Pressure  
Sea Level Pressure 29.60 in    
Wind  
Wind Speed 7 mph ()    
Max Wind Speed 17 mph    
Max Gust Speed -    
Visibility 6.0 miles    
Events Rain , Thunderstorm    
Averages and records for this station are not official NWS values.
T = Trace of Precipitation, MM = Missing Value Source: Averaged Metar Reports

Daily Weather History Graph

Daily Weather History Graph

Search for Another Location

Airport or City:

Trip Planner

Search our weather history database for the weather conditions in past years. The results will help you decide how hot, cold, wet, or windy it might be!

Date:

Astronomy

Jun. 18, 2013 Rise Set
Actual Time 5:37 AM +07 6:25 PM +07
Civil Twilight 5:14 AM +07 6:49 PM +07
Nautical Twilight 4:47 AM +07 7:16 PM +07
Astronomical Twilight 4:19 AM +07 7:44 PM +07
Moon 1:17 PM +07 (6/18) 12:38 AM +07 (6/18)
Length of Visible Light 13h 34m
Length of Day
12h 48m
Waxing Gibbous, 66% of the Moon is Illuminated
Jun 18
Waxing Gibbous
Jun 23
Full
Jun 30
Last Quarter
Jul 8
New
Jul 16
First Quarter

Hourly Weather History & Observations

Time (+07) Temp. Heat Index Dew Point Humidity Pressure Visibility Wind Dir Wind Speed Gust Speed Precip Events Conditions
12:00 AM 80.6 °F 87.1 °F 77.0 °F 89% 29.68 in 5.6 mi SSW 5.8 mph - N/A   Mostly Cloudy
12:30 AM 80.6 °F 86.2 °F 75.2 °F 84% 29.68 in 5.6 mi SSW 9.2 mph - N/A   Mostly Cloudy
6:00 AM 78.8 °F - 75.2 °F 89% 29.59 in 5.6 mi South 6.9 mph - N/A   Mostly Cloudy
6:30 AM 78.8 °F - 75.2 °F 89% 29.59 in 5.6 mi South 4.6 mph - N/A   Mostly Cloudy
7:00 AM 78.8 °F - 75.2 °F 89% 29.62 in 5.6 mi SSE 5.8 mph - N/A   Mostly Cloudy
7:30 AM 80.6 °F 86.2 °F 75.2 °F 84% 29.62 in 6.2 mi South 6.9 mph - N/A   Mostly Cloudy
8:00 AM 80.6 °F 86.2 °F 75.2 °F 84% 29.62 in 6.2 mi SSE 4.6 mph - N/A   Mostly Cloudy
8:30 AM 80.6 °F 86.2 °F 75.2 °F 84% 29.65 in 6.2 mi SSE 5.8 mph - N/A   Mostly Cloudy
9:00 AM 82.4 °F 89.5 °F 75.2 °F 79% 29.65 in 6.2 mi SSE 5.8 mph - N/A   Scattered Clouds
9:30 AM 84.2 °F 92.3 °F 75.2 °F 74% 29.65 in 6.2 mi South 8.1 mph - N/A   Scattered Clouds
10:00 AM 87.8 °F 99.7 °F 77.0 °F 70% 29.62 in 6.2 mi South 11.5 mph - N/A   Scattered Clouds
10:30 AM 87.8 °F 99.7 °F 77.0 °F 70% 29.62 in 6.2 mi SSW 8.1 mph - N/A   Scattered Clouds
11:00 AM 86.0 °F 95.1 °F 75.2 °F 70% 29.62 in 6.2 mi SW 10.4 mph - N/A   Scattered Clouds
11:30 AM 86.0 °F 96.9 °F 77.0 °F 74% 29.62 in - West 6.9 mph - N/A Rain Light Rain
12:00 PM 86.0 °F 96.9 °F 77.0 °F 74% 29.62 in 5.6 mi SW 6.9 mph - N/A   Scattered Clouds
12:30 PM 87.8 °F 99.7 °F 77.0 °F 70% 29.59 in 6.2 mi SW 9.2 mph - N/A   Scattered Clouds
1:00 PM 91.4 °F 105.1 °F 77.0 °F 63% 29.59 in 6.2 mi WSW 12.7 mph - N/A   Scattered Clouds
1:30 PM 91.4 °F 100.1 °F 73.4 °F 55% 29.56 in 6.2 mi SW 17.3 mph - N/A   Scattered Clouds
2:00 PM 91.4 °F 100.1 °F 73.4 °F 55% 29.56 in 6.2 mi WSW 13.8 mph - N/A   Scattered Clouds
2:30 PM 89.6 °F 98.2 °F 73.4 °F 59% 29.56 in 6.2 mi WSW 11.5 mph - N/A Thunderstorm Thunderstorm
3:00 PM 87.8 °F 97.6 °F 75.2 °F 66% 29.53 in 5.6 mi WNW 6.9 mph - N/A Rain Light Rain
3:30 PM 84.2 °F 92.3 °F 75.2 °F 74% 29.53 in 5.6 mi WNW 4.6 mph - N/A Rain Light Rain
4:00 PM 86.0 °F 95.1 °F 75.2 °F 70% 29.53 in 6.2 mi West 8.1 mph - N/A   Scattered Clouds
4:30 PM 87.8 °F 97.6 °F 75.2 °F 66% 29.53 in 6.2 mi West 8.1 mph - N/A   Scattered Clouds
5:00 PM 86.0 °F 96.9 °F 77.0 °F 74% 29.53 in 6.2 mi West 6.9 mph - N/A   Scattered Clouds
5:30 PM 86.0 °F 95.1 °F 75.2 °F 70% 29.56 in 6.2 mi WSW 5.8 mph - N/A   Scattered Clouds
6:00 PM 87.8 °F 95.6 °F 73.4 °F 62% 29.56 in 6.2 mi WSW 11.5 mph - N/A   Scattered Clouds
6:30 PM 87.8 °F 95.6 °F 73.4 °F 62% 29.56 in 6.2 mi WSW 9.2 mph - N/A   Scattered Clouds
7:00 PM 87.8 °F 93.8 °F 71.6 °F 58% 29.59 in 6.2 mi WSW 11.5 mph - N/A   Scattered Clouds
7:30 PM 86.0 °F 91.8 °F 71.6 °F 62% 29.59 in 5.6 mi WSW 10.4 mph - N/A   Scattered Clouds
8:00 PM 87.8 °F 93.8 °F 71.6 °F 58% 29.62 in 5.6 mi WSW 8.1 mph - N/A   Scattered Clouds
8:30 PM 86.0 °F 91.8 °F 71.6 °F 62% 29.62 in 5.6 mi WSW 8.1 mph - N/A   Scattered Clouds
9:00 PM 86.0 °F 91.8 °F 71.6 °F 62% 29.62 in 6.2 mi WSW 5.8 mph - N/A   Scattered Clouds
9:30 PM 86.0 °F 91.8 °F 71.6 °F 62% 29.62 in 6.2 mi WSW 6.9 mph - N/A   Scattered Clouds
10:00 PM 86.0 °F 91.8 °F 71.6 °F 62% 29.62 in 6.2 mi South 4.6 mph - N/A   Scattered Clouds
10:30 PM 84.2 °F 90.9 °F 73.4 °F 70% 29.65 in 6.2 mi SW 4.6 mph - N/A   Mostly Cloudy
11:00 PM 84.2 °F 92.3 °F 75.2 °F 74% 29.65 in 6.2 mi South 3.5 mph - N/A   Mostly Cloudy
11:30 PM 84.2 °F 92.3 °F 75.2 °F 74% 29.62 in 6.2 mi South 3.5 mph - N/A   Mostly Cloudy